Time,TemperatureF,DewpointF,PressureIn,WindDirection,WindDirectionDegrees,WindSpeedMPH,WindSpeedGustMPH,Humidity,HourlyPrecipIn,Conditions,Clouds,dailyrainin,SolarRadiationWatts/m^2,SoftwareType,DateUTC
2013-07-21 00:00:00,70.7,69.2,29.93,WSW,257,2.0,4.0,95,0.00,RA,,0.00,0.0,WeatherDisplay:10.37,2013-07-21 04:00:00,
2013-07-21 00:01:00,70.7,69.2,29.93,West,267,4.0,4.0,95,0.00,RA,,0.00,0.0,WeatherDisplay:10.37,2013-07-21 04:01:00,
2013-07-21 00:06:00,70.6,69.4,29.93,West,275,3.0,3.0,96,0.00,RA,,0.00,0.0,WeatherDisplay:10.37,2013-07-21 04:06:00,
2013-07-21 00:11:00,70.7,69.5,29.93,West,268,3.5,3.5,96,0.00,,,0.00,0.0,WeatherDisplay:10.37,2013-07-21 04:11:00,
2013-07-21 00:16:00,70.8,69.6,29.93,WNW,286,3.5,3.5,96,0.00,,,0.00,0.0,WeatherDisplay:10.37,2013-07-21 04:16:00,
2013-07-21 00:21:00,71.0,69.8,29.93,West,271,3.5,3.5,96,0.00,,,0.00,0.0,WeatherDisplay:10.37,2013-07-21 04:21:00,
2013-07-21 00:26:00,71.1,69.9,29.94,West,271,3.5,3.5,96,0.00,,,0.00,0.0,WeatherDisplay:10.37,2013-07-21 04:26:00,
2013-07-21 00:31:00,71.1,69.9,29.94,West,275,7.0,7.0,96,0.00,,,0.00,0.0,WeatherDisplay:10.37,2013-07-21 04:31:00,
2013-07-21 00:36:00,71.2,70.0,29.94,West,271,5.8,5.8,96,0.00,,,0.00,0.0,WeatherDisplay:10.37,2013-07-21 04:36:00,
2013-07-21 00:41:00,71.1,69.9,29.94,West,263,3.5,3.5,96,0.00,,,0.00,0.0,WeatherDisplay:10.37,2013-07-21 04:41:00,
2013-07-21 00:46:00,71.1,69.9,29.94,WNW,298,3.0,3.0,96,0.00,,,0.00,0.0,WeatherDisplay:10.37,2013-07-21 04:46:00,
2013-07-21 00:51:00,71.1,69.9,29.93,West,269,3.5,3.5,96,0.00,,,0.00,0.0,WeatherDisplay:10.37,2013-07-21 04:51:00,
2013-07-21 00:56:00,71.0,69.8,29.94,West,276,3.5,3.5,96,0.00,,,0.00,0.0,WeatherDisplay:10.37,2013-07-21 04:56:00,
2013-07-21 01:01:00,71.1,69.9,29.94,WNW,301,3.5,3.5,96,0.00,,,0.00,0.0,WeatherDisplay:10.37,2013-07-21 05:01:00,
2013-07-21 01:06:00,71.1,69.9,29.94,West,276,3.5,3.5,96,0.00,,,0.00,0.0,WeatherDisplay:10.37,2013-07-21 05:06:00,
2013-07-21 01:11:00,71.1,69.9,29.94,West,273,3.5,3.5,96,0.00,,,0.00,0.0,WeatherDisplay:10.37,2013-07-21 05:11:00,
2013-07-21 01:16:00,71.0,69.8,29.94,WSW,256,2.3,2.3,96,0.00,,,0.00,0.0,WeatherDisplay:10.37,2013-07-21 05:16:00,
2013-07-21 01:21:00,71.0,70.1,29.94,WSW,256,2.3,2.3,97,0.00,,,0.00,0.0,WeatherDisplay:10.37,2013-07-21 05:21:00,
2013-07-21 01:26:00,71.0,70.1,29.94,West,261,2.3,2.3,97,0.00,,,0.00,0.0,WeatherDisplay:10.37,2013-07-21 05:26:00,
2013-07-21 01:31:00,71.0,70.1,29.94,West,279,2.3,2.3,97,0.00,,,0.00,0.0,WeatherDisplay:10.37,2013-07-21 05:31:00,
2013-07-21 01:36:00,70.9,69.7,29.94,West,279,2.3,2.3,96,0.00,,,0.00,0.0,WeatherDisplay:10.37,2013-07-21 05:36:00,
2013-07-21 01:41:00,70.8,69.6,29.94,WNW,289,3.5,3.5,96,0.00,,,0.00,0.0,WeatherDisplay:10.37,2013-07-21 05:41:00,
2013-07-21 01:46:00,70.8,69.6,29.94,WNW,290,2.3,2.3,96,0.00,,,0.00,0.0,WeatherDisplay:10.37,2013-07-21 05:46:00,
2013-07-21 01:51:00,70.7,69.5,29.94,WNW,290,2.3,2.3,96,0.00,,,0.00,0.0,WeatherDisplay:10.37,2013-07-21 05:51:00,
2013-07-21 01:56:00,70.7,69.5,29.94,WNW,290,0.0,0.0,96,0.00,,,0.00,0.0,WeatherDisplay:10.37,2013-07-21 05:56:00,
2013-07-21 02:01:00,70.5,69.3,29.94,WNW,290,0.0,0.0,96,0.00,,,0.00,0.0,WeatherDisplay:10.37,2013-07-21 06:01:00,
2013-07-21 02:06:00,70.5,69.6,29.94,WNW,290,1.2,0.0,97,0.00,,,0.00,0.0,WeatherDisplay:10.37,2013-07-21 06:06:00,
2013-07-21 02:11:00,70.6,69.7,29.94,WNW,290,1.2,1.2,97,0.00,,,0.00,0.0,WeatherDisplay:10.37,2013-07-21 06:11:00,
2013-07-21 02:16:00,70.4,69.5,29.94,WNW,290,0.0,0.0,97,0.00,,,0.00,0.0,WeatherDisplay:10.37,2013-07-21 06:16:00,
2013-07-21 02:21:00,70.2,69.0,29.94,WNW,290,0.0,0.0,96,0.00,,,0.00,0.0,WeatherDisplay:10.37,2013-07-21 06:21:00,
2013-07-21 02:26:00,70.0,68.8,29.93,WNW,290,0.0,0.0,96,0.00,,,0.00,0.0,WeatherDisplay:10.37,2013-07-21 06:26:00,
2013-07-21 02:31:00,69.8,68.6,29.94,WNW,290,0.0,0.0,96,0.00,,,0.00,0.0,WeatherDisplay:10.37,2013-07-21 06:31:00,
2013-07-21 02:36:00,69.5,68.3,29.93,WNW,290,0.0,0.0,96,0.00,,,0.00,0.0,WeatherDisplay:10.37,2013-07-21 06:36:00,
2013-07-21 02:41:00,69.1,67.9,29.93,WNW,290,0.0,0.0,96,0.00,,,0.00,0.0,WeatherDisplay:10.37,2013-07-21 06:41:00,
2013-07-21 02:46:00,68.9,67.7,29.93,WNW,290,1.2,0.0,96,0.00,,,0.00,0.0,WeatherDisplay:10.37,2013-07-21 06:46:00,
2013-07-21 02:51:00,68.6,67.4,29.93,WNW,290,0.0,0.0,96,0.00,,,0.00,0.0,WeatherDisplay:10.37,2013-07-21 06:51:00,
2013-07-21 02:56:00,68.5,67.6,29.92,WNW,290,0.0,0.0,97,0.00,,,0.00,0.0,WeatherDisplay:10.37,2013-07-21 06:56:00,
2013-07-21 03:01:00,68.4,67.5,29.93,WNW,290,0.0,0.0,97,0.00,,,0.00,0.0,WeatherDisplay:10.37,2013-07-21 07:01:00,
2013-07-21 03:06:00,68.4,67.5,29.93,WNW,290,0.0,0.0,97,0.00,,,0.00,0.0,WeatherDisplay:10.37,2013-07-21 07:06:00,
2013-07-21 03:11:00,68.4,67.5,29.93,WNW,290,0.0,0.0,97,0.00,,,0.00,0.0,WeatherDisplay:10.37,2013-07-21 07:11:00,
2013-07-21 03:16:00,68.2,67.3,29.93,WNW,290,0.0,0.0,97,0.00,,,0.00,0.0,WeatherDisplay:10.37,2013-07-21 07:16:00,
2013-07-21 03:21:00,68.1,67.2,29.93,WNW,290,0.0,0.0,97,0.00,,,0.00,0.0,WeatherDisplay:10.37,2013-07-21 07:21:00,
2013-07-21 03:26:00,68.0,67.1,29.93,WNW,290,0.0,0.0,97,0.00,,,0.00,0.0,WeatherDisplay:10.37,2013-07-21 07:26:00,
2013-07-21 03:31:00,67.9,67.0,29.93,WNW,290,0.0,0.0,97,0.00,,,0.00,0.0,WeatherDisplay:10.37,2013-07-21 07:31:00,
2013-07-21 03:36:00,67.8,66.9,29.93,WNW,290,0.0,0.0,97,0.00,,,0.00,0.0,WeatherDisplay:10.37,2013-07-21 07:36:00,
2013-07-21 03:41:00,67.7,66.8,29.93,WNW,290,0.0,0.0,97,0.00,,,0.00,0.0,WeatherDisplay:10.37,2013-07-21 07:41:00,
2013-07-21 03:46:00,67.5,66.6,29.93,WNW,290,0.0,0.0,97,0.00,,,0.00,0.0,WeatherDisplay:10.37,2013-07-21 07:46:00,
2013-07-21 03:51:00,67.4,66.5,29.93,WNW,290,2.0,2.0,97,0.00,,,0.00,0.0,WeatherDisplay:10.37,2013-07-21 07:51:00,
2013-07-21 03:56:00,67.4,66.5,29.93,WNW,290,2.0,2.0,97,0.00,,,0.00,0.0,WeatherDisplay:10.37,2013-07-21 07:56:00,
2013-07-21 04:01:00,67.2,66.3,29.93,WNW,290,1.2,1.2,97,0.00,,,0.00,0.0,WeatherDisplay:10.37,2013-07-21 08:01:00,
2013-07-21 04:06:00,67.3,66.7,29.93,WNW,290,2.3,2.3,98,0.00,,,0.00,0.0,WeatherDisplay:10.37,2013-07-21 08:06:00,
2013-07-21 04:11:00,67.2,66.6,29.93,WNW,290,0.0,0.0,98,0.00,,,0.00,0.0,WeatherDisplay:10.37,2013-07-21 08:11:00,
2013-07-21 04:16:00,67.1,66.2,29.93,WNW,290,0.0,0.0,97,0.00,,,0.00,0.0,WeatherDisplay:10.37,2013-07-21 08:16:00,
2013-07-21 04:21:00,66.9,66.0,29.93,WNW,290,0.0,0.0,97,0.00,,,0.00,0.0,WeatherDisplay:10.37,2013-07-21 08:21:00,
2013-07-21 04:26:00,66.8,65.9,29.94,WNW,290,0.0,0.0,97,0.00,,,0.00,0.0,WeatherDisplay:10.37,2013-07-21 08:26:00,
2013-07-21 04:31:00,66.8,65.9,29.94,WNW,290,0.0,0.0,97,0.00,,,0.00,0.0,WeatherDisplay:10.37,2013-07-21 08:31:00,
2013-07-21 04:36:00,66.8,66.2,29.94,WNW,290,0.0,0.0,98,0.00,,,0.00,0.0,WeatherDisplay:10.37,2013-07-21 08:36:00,
2013-07-21 04:41:00,66.8,66.2,29.94,WNW,290,0.0,0.0,98,0.00,,,0.00,0.0,WeatherDisplay:10.37,2013-07-21 08:41:00,
2013-07-21 04:46:00,66.7,66.1,29.94,WNW,290,0.0,0.0,98,0.00,,,0.00,0.0,WeatherDisplay:10.37,2013-07-21 08:46:00,
2013-07-21 04:51:00,66.6,66.0,29.94,WNW,290,0.0,0.0,98,0.00,,,0.00,0.0,WeatherDisplay:10.37,2013-07-21 08:51:00,
2013-07-21 04:56:00,66.5,65.9,29.93,WNW,290,0.0,0.0,98,0.00,,,0.00,0.0,WeatherDisplay:10.37,2013-07-21 08:56:00,
2013-07-21 05:01:00,66.4,65.5,29.93,WNW,290,0.0,0.0,97,0.00,,,0.00,0.0,WeatherDisplay:10.37,2013-07-21 09:01:00,
2013-07-21 05:06:00,66.4,65.8,29.93,WNW,290,0.0,0.0,98,0.00,,,0.00,0.0,WeatherDisplay:10.37,2013-07-21 09:06:00,
2013-07-21 05:11:00,66.3,65.4,29.93,WNW,290,0.0,0.0,97,0.00,,,0.00,0.0,WeatherDisplay:10.37,2013-07-21 09:11:00,
2013-07-21 05:16:00,66.2,65.3,29.93,WNW,290,0.0,0.0,97,0.00,,,0.00,0.0,WeatherDisplay:10.37,2013-07-21 09:16:00,
2013-07-21 05:21:00,66.1,65.5,29.93,WNW,290,0.0,0.0,98,0.00,,,0.00,0.0,WeatherDisplay:10.37,2013-07-21 09:21:00,
2013-07-21 05:26:00,66.0,65.4,29.93,WNW,290,0.0,0.0,98,0.00,,,0.00,0.0,WeatherDisplay:10.37,2013-07-21 09:26:00,
2013-07-21 05:31:00,65.9,65.3,29.93,WNW,290,0.0,0.0,98,0.00,,,0.00,0.0,WeatherDisplay:10.37,2013-07-21 09:31:00,
2013-07-21 05:36:00,66.0,65.4,29.93,WNW,290,0.0,0.0,98,0.00,,,0.00,0.0,WeatherDisplay:10.37,2013-07-21 09:36:00,
2013-07-21 05:41:00,66.2,65.6,29.93,WNW,290,0.0,0.0,98,0.00,,,0.00,0.0,WeatherDisplay:10.37,2013-07-21 09:41:00,
2013-07-21 05:46:00,66.1,65.5,29.93,WNW,290,0.0,0.0,98,0.00,,,0.00,0.0,WeatherDisplay:10.37,2013-07-21 09:46:00,
2013-07-21 05:51:00,66.0,65.4,29.93,WNW,290,0.0,0.0,98,0.00,,,0.00,0.0,WeatherDisplay:10.37,2013-07-21 09:51:00,
2013-07-21 05:56:00,65.8,65.2,29.93,WNW,290,0.0,0.0,98,0.00,,,0.00,0.0,WeatherDisplay:10.37,2013-07-21 09:56:00,
2013-07-21 06:01:00,66.0,65.4,29.94,WNW,295,2.3,2.3,98,0.00,,,0.00,0.0,WeatherDisplay:10.37,2013-07-21 10:01:00,
2013-07-21 06:06:00,66.0,65.4,29.94,WNW,295,2.3,2.3,98,0.00,,,0.00,0.0,WeatherDisplay:10.37,2013-07-21 10:06:00,
2013-07-21 06:11:00,66.0,65.4,29.94,WNW,295,0.0,0.0,98,0.00,,,0.00,0.0,WeatherDisplay:10.37,2013-07-21 10:11:00,
2013-07-21 06:16:00,65.8,65.2,29.95,WSW,246,1.2,1.2,98,0.00,,,0.00,0.0,WeatherDisplay:10.37,2013-07-21 10:16:00,
2013-07-21 06:21:00,65.6,64.7,29.95,SW,223,1.2,1.2,97,0.00,,,0.00,0.0,WeatherDisplay:10.37,2013-07-21 10:21:00,
2013-07-21 06:26:00,65.4,64.5,29.95,East,93,2.0,2.0,97,0.00,,,0.00,5.0,WeatherDisplay:10.37,2013-07-21 10:26:00,
2013-07-21 06:31:00,65.3,64.4,29.95,NNE,32,1.2,1.5,97,0.00,CLR,,0.00,5.0,WeatherDisplay:10.37,2013-07-21 10:31:00,
2013-07-21 06:36:00,65.4,64.8,29.95,NNE,32,0.0,0.0,98,0.00,SCT,,0.00,7.0,WeatherDisplay:10.37,2013-07-21 10:36:00,
2013-07-21 06:41:00,65.5,64.9,29.96,NNE,32,0.0,0.0,98,0.00,SCT,,0.00,12.0,WeatherDisplay:10.37,2013-07-21 10:41:00,
2013-07-21 06:46:00,65.5,64.9,29.96,NNE,32,0.0,0.0,98,0.00,SCT,,0.00,18.0,WeatherDisplay:10.37,2013-07-21 10:46:00,
2013-07-21 06:51:00,65.5,64.9,29.96,NNE,32,0.0,0.0,98,0.00,SCT,,0.00,23.0,WeatherDisplay:10.37,2013-07-21 10:51:00,
2013-07-21 06:56:00,65.6,65.0,29.96,NNE,32,1.0,1.0,98,0.00,SCT,,0.00,30.0,WeatherDisplay:10.37,2013-07-21 10:56:00,
2013-07-21 07:01:00,65.8,65.2,29.96,NNE,32,0.0,0.0,98,0.00,SCT,,0.00,35.0,WeatherDisplay:10.37,2013-07-21 11:01:00,
2013-07-21 07:06:00,65.9,65.3,29.96,NNE,32,0.0,0.0,98,0.00,BKN,,0.00,35.0,WeatherDisplay:10.37,2013-07-21 11:06:00,
2013-07-21 07:11:00,66.0,65.4,29.96,NNE,32,0.0,0.0,98,0.00,SCT,,0.00,47.0,WeatherDisplay:10.37,2013-07-21 11:11:00,
2013-07-21 07:16:00,66.3,65.7,29.96,NNE,32,1.2,1.2,98,0.00,SCT,,0.00,58.0,WeatherDisplay:10.37,2013-07-21 11:16:00,
2013-07-21 07:21:00,66.5,65.9,29.96,NNE,32,1.2,1.2,98,0.00,SCT,,0.00,72.0,WeatherDisplay:10.37,2013-07-21 11:21:00,
2013-07-21 07:26:00,66.9,66.3,29.96,NNE,32,0.0,0.0,98,0.00,SCT,,0.00,76.0,WeatherDisplay:10.37,2013-07-21 11:26:00,
2013-07-21 07:31:00,67.3,66.7,29.96,NNE,32,0.0,0.0,98,0.00,SCT,,0.00,81.0,WeatherDisplay:10.37,2013-07-21 11:31:00,
2013-07-21 07:36:00,67.6,67.0,29.96,NNE,14,1.2,0.0,98,0.00,FEW,,0.00,137.0,WeatherDisplay:10.37,2013-07-21 11:36:00,
2013-07-21 07:41:00,68.0,67.1,29.96,NNE,14,0.0,0.0,97,0.00,CLR,,0.00,167.0,WeatherDisplay:10.37,2013-07-21 11:41:00,
2013-07-21 07:46:00,68.5,67.3,29.97,NNE,14,2.0,2.0,96,0.00,CLR,,0.00,188.0,WeatherDisplay:10.37,2013-07-21 11:46:00,
2013-07-21 07:51:00,69.2,67.4,29.97,NNE,14,2.3,2.3,94,0.00,CLR,,0.00,211.0,WeatherDisplay:10.37,2013-07-21 11:51:00,
2013-07-21 07:56:00,69.8,67.4,29.97,NE,34,3.5,3.5,92,0.00,CLR,,0.00,236.0,WeatherDisplay:10.37,2013-07-21 11:56:00,
2013-07-21 08:01:00,70.2,67.8,29.97,NNE,29,3.5,3.5,92,0.00,CLR,,0.00,255.0,WeatherDisplay:10.37,2013-07-21 12:01:00,
2013-07-21 08:06:00,70.6,67.8,29.97,NNE,24,3.5,3.5,91,0.00,CLR,,0.00,197.0,WeatherDisplay:10.37,2013-07-21 12:06:00,
2013-07-21 08:11:00,71.0,68.2,29.97,NNE,25,2.3,2.3,91,0.00,CLR,,0.00,285.0,WeatherDisplay:10.37,2013-07-21 12:11:00,
2013-07-21 08:16:00,71.2,68.1,29.97,NNE,20,2.3,2.3,90,0.00,CLR,,0.00,294.0,WeatherDisplay:10.37,2013-07-21 12:16:00,
2013-07-21 08:21:00,71.7,68.6,29.98,NNE,22,2.3,2.3,90,0.00,CLR,,0.00,206.0,WeatherDisplay:10.37,2013-07-21 12:21:00,
2013-07-21 08:26:00,72.2,68.8,29.98,ENE,70,2.3,2.3,89,0.00,CLR,,0.00,309.0,WeatherDisplay:10.37,2013-07-21 12:26:00,
2013-07-21 08:31:00,72.8,69.0,29.98,East,86,2.3,2.3,88,0.00,CLR,,0.00,279.0,WeatherDisplay:10.37,2013-07-21 12:31:00,
2013-07-21 08:36:00,73.0,69.2,29.98,ENE,78,1.2,1.2,88,0.00,CLR,,0.00,250.0,WeatherDisplay:10.37,2013-07-21 12:36:00,
2013-07-21 08:41:00,72.9,69.1,29.98,NE,56,2.3,0.0,88,0.00,CLR,,0.00,132.0,WeatherDisplay:10.37,2013-07-21 12:41:00,
2013-07-21 08:46:00,72.7,68.6,29.98,NE,55,2.3,2.3,87,0.00,SCT,,0.00,128.0,WeatherDisplay:10.37,2013-07-21 12:46:00,
2013-07-21 08:51:00,72.5,69.1,29.98,ENE,57,2.3,2.3,89,0.00,BKN,,0.00,202.0,WeatherDisplay:10.37,2013-07-21 12:51:00,
2013-07-21 08:56:00,72.3,69.2,29.98,ENE,63,3.5,3.5,90,0.00,BKN,,0.00,207.0,WeatherDisplay:10.37,2013-07-21 12:56:00,
2013-07-21 09:01:00,72.4,69.0,29.99,ENE,78,3.0,3.0,89,0.00,SCT,,0.00,304.0,WeatherDisplay:10.37,2013-07-21 13:01:00,
2013-07-21 09:06:00,73.0,70.2,29.99,ESE,108,3.0,3.0,91,0.00,FEW,,0.00,471.0,WeatherDisplay:10.37,2013-07-21 13:06:00,
2013-07-21 09:11:00,73.6,70.2,29.99,NNE,33,3.5,3.5,89,0.00,CLR,,0.00,490.0,WeatherDisplay:10.37,2013-07-21 13:11:00,
2013-07-21 09:16:00,74.1,70.0,29.99,NE,42,3.5,3.5,87,0.00,CLR,,0.00,478.0,WeatherDisplay:10.37,2013-07-21 13:16:00,
2013-07-21 09:21:00,74.5,70.4,29.99,East,93,3.5,3.5,87,0.00,CLR,,0.00,466.0,WeatherDisplay:10.37,2013-07-21 13:21:00,
2013-07-21 09:26:00,74.9,70.8,29.99,ENE,57,3.0,3.0,87,0.00,CLR,,0.00,492.0,WeatherDisplay:10.37,2013-07-21 13:26:00,
2013-07-21 09:31:00,74.9,70.1,29.99,ENE,75,3.5,3.5,85,0.00,CLR,,0.00,392.0,WeatherDisplay:10.37,2013-07-21 13:31:00,
2013-07-21 09:36:00,74.3,69.5,29.99,ENE,66,6.9,6.9,85,0.00,FEW,,0.00,283.0,WeatherDisplay:10.37,2013-07-21 13:36:00,
2013-07-21 09:41:00,74.0,69.9,29.99,East,90,4.6,4.6,87,0.00,SCT,,0.00,327.0,WeatherDisplay:10.37,2013-07-21 13:41:00,
2013-07-21 09:46:00,74.2,70.4,29.99,ESE,109,3.5,3.5,88,0.00,SCT,,0.00,494.0,WeatherDisplay:10.37,2013-07-21 13:46:00,
2013-07-21 09:51:00,74.8,69.6,29.99,East,87,4.6,4.6,84,0.00,FEW,,0.00,550.0,WeatherDisplay:10.37,2013-07-21 13:51:00,
2013-07-21 09:56:00,75.2,70.4,29.99,NE,40,3.5,3.5,85,0.00,CLR,,0.00,610.0,WeatherDisplay:10.37,2013-07-21 13:56:00,
2013-07-21 10:01:00,75.9,70.4,29.99,ENE,76,5.8,5.8,83,0.00,CLR,,0.00,617.0,WeatherDisplay:10.37,2013-07-21 14:01:00,
2013-07-21 10:06:00,76.3,70.0,29.99,East,87,8.1,8.1,81,0.00,CLR,,0.00,621.0,WeatherDisplay:10.37,2013-07-21 14:06:00,
2013-07-21 10:11:00,76.9,71.0,29.99,ESE,118,3.5,3.5,82,0.00,CLR,,0.00,633.0,WeatherDisplay:10.37,2013-07-21 14:11:00,
2013-07-21 10:16:00,77.2,69.8,29.99,ESE,107,6.9,6.9,78,0.00,CLR,,0.00,642.0,WeatherDisplay:10.37,2013-07-21 14:16:00,
2013-07-21 10:21:00,77.2,70.2,29.99,East,82,7.0,7.0,79,0.00,CLR,,0.00,661.0,WeatherDisplay:10.37,2013-07-21 14:21:00,
2013-07-21 10:26:00,77.3,69.9,29.99,East,81,6.9,6.9,78,0.00,CLR,,0.00,673.0,WeatherDisplay:10.37,2013-07-21 14:26:00,
2013-07-21 10:32:00,77.3,70.6,29.99,ENE,71,6.9,6.9,80,0.00,CLR,,0.00,689.0,WeatherDisplay:10.37,2013-07-21 14:32:00,
2013-07-21 10:37:00,77.6,70.9,29.99,SE,130,4.0,4.0,80,0.00,CLR,,0.00,703.0,WeatherDisplay:10.37,2013-07-21 14:37:00,
2013-07-21 10:42:00,77.9,70.9,29.99,ENE,68,8.1,8.1,79,0.00,CLR,,0.00,717.0,WeatherDisplay:10.37,2013-07-21 14:42:00,
2013-07-21 10:47:00,77.9,69.7,29.99,ENE,75,6.9,6.9,76,0.00,CLR,,0.00,735.0,WeatherDisplay:10.37,2013-07-21 14:47:00,
2013-07-21 10:52:00,77.9,70.5,29.99,ENE,67,6.9,6.9,78,0.00,CLR,,0.00,744.0,WeatherDisplay:10.37,2013-07-21 14:52:00,
2013-07-21 10:57:00,78.2,70.0,29.99,ENE,69,6.9,6.9,76,0.00,CLR,,0.00,777.0,WeatherDisplay:10.37,2013-07-21 14:57:00,
2013-07-21 11:02:00,78.7,72.4,29.99,NE,55,5.8,5.8,81,0.00,CLR,,0.00,805.0,WeatherDisplay:10.37,2013-07-21 15:02:00,
2013-07-21 11:07:00,79.2,70.6,29.99,SSE,148,4.6,4.6,75,0.00,CLR,,0.00,870.0,WeatherDisplay:10.37,2013-07-21 15:07:00,
2013-07-21 11:12:00,79.8,71.9,29.99,SE,131,4.6,4.6,77,0.00,CLR,,0.00,717.0,WeatherDisplay:10.37,2013-07-21 15:12:00,
2013-07-21 11:17:00,79.9,70.9,29.99,East,84,3.5,3.5,74,0.00,CLR,,0.00,635.0,WeatherDisplay:10.37,2013-07-21 15:17:00,
2013-07-21 11:22:00,80.0,70.6,29.99,East,94,4.6,4.6,73,0.00,FEW,,0.00,635.0,WeatherDisplay:10.37,2013-07-21 15:22:00,
2013-07-21 11:27:00,79.9,71.7,29.99,ESE,115,5.8,5.8,76,0.00,FEW,,0.00,606.0,WeatherDisplay:10.37,2013-07-21 15:27:00,
2013-07-21 11:32:00,80.4,72.5,29.99,East,101,3.5,3.5,77,0.00,FEW,,0.00,747.0,WeatherDisplay:10.37,2013-07-21 15:32:00,
2013-07-21 11:37:00,80.7,72.4,30.00,SE,138,5.8,5.8,76,0.00,CLR,,0.00,965.0,WeatherDisplay:10.37,2013-07-21 15:37:00,
2013-07-21 11:42:00,80.7,72.4,29.99,ESE,104,4.6,4.6,76,0.00,FEW,,0.00,763.0,WeatherDisplay:10.37,2013-07-21 15:42:00,
2013-07-21 11:47:00,81.0,71.9,29.99,East,84,3.5,3.6,74,0.00,FEW,,0.00,861.0,WeatherDisplay:10.37,2013-07-21 15:47:00,
2013-07-21 11:52:00,80.7,70.8,29.99,ESE,117,5.8,5.8,72,0.00,FEW,,0.00,385.0,WeatherDisplay:10.37,2013-07-21 15:52:00,
2013-07-21 11:57:00,80.6,71.1,29.99,ESE,111,3.5,3.5,73,0.00,SCT,,0.00,642.0,WeatherDisplay:10.37,2013-07-21 15:57:00,
2013-07-21 12:02:00,80.8,71.3,29.99,SSW,194,5.8,5.8,73,0.00,SCT,,0.00,473.0,WeatherDisplay:10.37,2013-07-21 16:02:00,
2013-07-21 12:07:00,80.7,71.6,29.98,ESE,112,3.5,3.5,74,0.00,SCT,,0.00,684.0,WeatherDisplay:10.37,2013-07-21 16:07:00,
2013-07-21 12:12:00,81.1,72.8,29.99,SSE,155,5.0,5.0,76,0.00,FEW,,0.00,513.0,WeatherDisplay:10.37,2013-07-21 16:12:00,
2013-07-21 12:17:00,81.3,72.6,29.99,SSE,154,5.8,5.8,75,0.00,SCT,,0.00,819.0,WeatherDisplay:10.37,2013-07-21 16:17:00,
2013-07-21 12:22:00,81.7,71.4,29.99,SSW,192,3.5,3.5,71,0.00,FEW,,0.00,1046.0,WeatherDisplay:10.37,2013-07-21 16:22:00,
2013-07-21 12:27:00,82.3,73.2,29.98,East,86,3.5,3.5,74,0.00,CLR,,0.00,1074.0,WeatherDisplay:10.37,2013-07-21 16:27:00,
2013-07-21 12:32:00,82.9,73.4,29.98,South,173,7.0,7.0,73,0.00,CLR,,0.00,1037.0,WeatherDisplay:10.37,2013-07-21 16:32:00,
2013-07-21 12:37:00,83.0,72.2,29.98,South,183,3.5,3.7,70,0.00,CLR,,0.00,1100.0,WeatherDisplay:10.37,2013-07-21 16:37:00,
2013-07-21 12:42:00,83.3,70.8,29.98,SSE,163,5.8,5.8,66,0.00,CLR,,0.00,1153.0,WeatherDisplay:10.37,2013-07-21 16:42:00,
2013-07-21 12:47:00,83.5,72.7,29.98,East,86,4.0,4.0,70,0.00,CLR,,0.00,1046.0,WeatherDisplay:10.37,2013-07-21 16:47:00,
2013-07-21 12:52:00,83.5,70.5,29.98,South,187,3.5,3.5,65,0.00,CLR,,0.00,1150.0,WeatherDisplay:10.37,2013-07-21 16:52:00,
2013-07-21 12:57:00,83.8,71.7,29.98,South,191,6.9,6.9,67,0.00,CLR,,0.00,875.0,WeatherDisplay:10.37,2013-07-21 16:57:00,
2013-07-21 13:02:00,83.5,70.5,29.98,NE,38,3.5,3.5,65,0.00,CLR,,0.00,663.0,WeatherDisplay:10.37,2013-07-21 17:02:00,
2013-07-21 13:07:00,83.4,72.2,29.98,ENE,76,3.5,3.5,69,0.00,SCT,,0.00,643.0,WeatherDisplay:10.37,2013-07-21 17:07:00,
2013-07-21 13:12:00,83.6,72.8,29.98,East,96,3.5,3.5,70,0.00,SCT,,0.00,1111.0,WeatherDisplay:10.37,2013-07-21 17:12:00,
2013-07-21 13:17:00,83.8,71.7,29.98,NE,54,3.5,3.5,67,0.00,FEW,,0.00,577.0,WeatherDisplay:10.37,2013-07-21 17:17:00,
2013-07-21 13:22:00,83.9,70.9,29.98,SSE,164,3.5,3.5,65,0.00,FEW,,0.00,872.0,WeatherDisplay:10.37,2013-07-21 17:22:00,
2013-07-21 13:27:00,84.4,71.3,29.98,East,86,3.5,3.5,65,0.00,FEW,,0.00,1044.0,WeatherDisplay:10.37,2013-07-21 17:27:00,
2013-07-21 13:32:00,85.0,72.8,29.98,SSW,199,2.3,2.3,67,0.00,CLR,,0.00,1137.0,WeatherDisplay:10.37,2013-07-21 17:32:00,
2013-07-21 13:37:00,85.1,74.2,29.98,East,81,7.0,7.0,70,0.00,FEW,,0.00,1090.0,WeatherDisplay:10.37,2013-07-21 17:37:00,
2013-07-21 13:42:00,84.5,71.9,29.98,NE,38,4.0,4.0,66,0.00,FEW,,0.00,1067.0,WeatherDisplay:10.37,2013-07-21 17:42:00,
2013-07-21 13:47:00,84.6,72.0,29.97,ENE,63,4.6,4.6,66,0.00,CLR,,0.00,1056.0,WeatherDisplay:10.37,2013-07-21 17:47:00,
2013-07-21 13:52:00,84.4,72.7,29.97,NNE,17,3.5,3.5,68,0.00,CLR,,0.00,1044.0,WeatherDisplay:10.37,2013-07-21 17:52:00,
2013-07-21 13:57:00,84.6,72.4,29.97,NE,44,5.0,5.0,67,0.00,CLR,,0.00,1044.0,WeatherDisplay:10.37,2013-07-21 17:57:00,
2013-07-21 14:02:00,84.7,73.4,29.97,NE,38,5.8,5.8,69,0.00,CLR,,0.00,1125.0,WeatherDisplay:10.37,2013-07-21 18:02:00,
2013-07-21 14:07:00,84.2,72.9,29.97,NNE,30,8.1,8.1,69,0.00,FEW,,0.00,422.0,WeatherDisplay:10.37,2013-07-21 18:07:00,
2013-07-21 14:12:00,83.9,72.2,29.97,NNE,17,3.5,3.5,68,0.00,CLR,,0.00,1137.0,WeatherDisplay:10.37,2013-07-21 18:12:00,
2013-07-21 14:17:00,83.6,73.2,29.97,NE,45,4.6,4.6,71,0.00,SCT,,0.00,424.0,WeatherDisplay:10.37,2013-07-21 18:17:00,
2013-07-21 14:22:00,83.9,72.2,29.97,NE,52,3.5,3.5,68,0.00,BKN,,0.00,1069.0,WeatherDisplay:10.37,2013-07-21 18:22:00,
2013-07-21 14:27:00,84.1,71.5,29.97,NNE,24,8.1,8.1,66,0.00,SCT,,0.00,884.0,WeatherDisplay:10.37,2013-07-21 18:27:00,
2013-07-21 14:32:00,83.3,69.8,29.96,NE,48,5.0,5.0,64,0.00,SCT,,0.00,325.0,WeatherDisplay:10.37,2013-07-21 18:32:00,
2013-07-21 14:37:00,83.2,72.4,29.97,East,82,5.8,5.8,70,0.00,BKN,,0.00,1150.0,WeatherDisplay:10.37,2013-07-21 18:37:00,
2013-07-21 14:42:00,83.8,70.8,29.97,SE,135,4.6,4.6,65,0.00,SCT,,0.00,355.0,WeatherDisplay:10.37,2013-07-21 18:42:00,
2013-07-21 14:47:00,83.8,71.2,29.96,SE,132,3.5,3.5,66,0.00,SCT,,0.00,438.0,WeatherDisplay:10.37,2013-07-21 18:47:00,
2013-07-21 14:52:00,83.8,72.1,29.96,NE,56,3.5,3.5,68,0.00,BKN,,0.00,404.0,WeatherDisplay:10.37,2013-07-21 18:52:00,
2013-07-21 14:57:00,83.3,70.3,29.96,East,101,4.6,4.6,65,0.00,BKN,,0.00,302.0,WeatherDisplay:10.37,2013-07-21 18:57:00,
2013-07-21 15:02:00,82.9,70.4,29.96,ENE,69,3.5,3.5,66,0.00,BKN,,0.00,336.0,WeatherDisplay:10.37,2013-07-21 19:02:00,
2013-07-21 15:07:00,83.0,71.3,29.96,South,172,2.3,2.3,68,0.00,BKN,,0.00,350.0,WeatherDisplay:10.37,2013-07-21 19:07:00,
2013-07-21 15:12:00,83.3,70.3,29.96,NE,53,3.5,3.5,65,0.00,BKN,,0.00,417.0,WeatherDisplay:10.37,2013-07-21 19:12:00,
2013-07-21 15:17:00,84.1,70.6,29.95,ESE,108,2.3,2.3,64,0.00,BKN,,0.00,1114.0,WeatherDisplay:10.37,2013-07-21 19:17:00,
2013-07-21 15:22:00,84.8,69.4,29.95,ENE,75,3.5,3.5,60,0.00,FEW,,0.00,301.0,WeatherDisplay:10.37,2013-07-21 19:22:00,
2013-07-21 15:27:00,84.2,70.2,29.95,NE,53,3.5,3.5,63,0.00,SCT,,0.00,272.0,WeatherDisplay:10.37,2013-07-21 19:27:00,
2013-07-21 15:32:00,83.8,71.7,29.95,NE,53,1.2,0.0,67,0.00,BKN,,0.00,223.0,WeatherDisplay:10.37,2013-07-21 19:32:00,
2013-07-21 15:37:00,83.9,71.8,29.95,NE,54,1.2,1.2,67,0.00,BKN,,0.00,279.0,WeatherDisplay:10.37,2013-07-21 19:37:00,
2013-07-21 15:42:00,84.2,72.0,29.95,SE,141,2.3,2.3,67,0.00,BKN,,0.00,589.0,WeatherDisplay:10.37,2013-07-21 19:42:00,
2013-07-21 15:47:00,84.8,72.2,29.95,ENE,69,3.5,3.5,66,0.00,SCT,,0.00,967.0,WeatherDisplay:10.37,2013-07-21 19:47:00,
2013-07-21 15:52:00,85.3,71.7,29.94,ENE,68,3.5,3.5,64,0.00,SCT,,0.00,468.0,WeatherDisplay:10.37,2013-07-21 19:52:00,
2013-07-21 15:57:00,85.9,70.9,29.94,ENE,67,3.5,3.5,61,0.00,CLR,,0.00,1118.0,WeatherDisplay:10.37,2013-07-21 19:57:00,
2013-07-21 16:02:00,85.4,72.7,29.94,ENE,74,3.5,3.5,66,0.00,CLR,,0.00,483.0,WeatherDisplay:10.37,2013-07-21 20:02:00,
2013-07-21 16:07:00,84.6,70.6,29.94,ENE,75,5.8,5.8,63,0.00,SCT,,0.00,362.0,WeatherDisplay:10.37,2013-07-21 20:07:00,
2013-07-21 16:12:00,83.9,69.5,29.94,East,82,3.5,3.5,62,0.00,BKN,,0.00,283.0,WeatherDisplay:10.37,2013-07-21 20:12:00,
2013-07-21 16:17:00,83.3,69.8,29.94,ENE,67,3.5,3.5,64,0.00,BKN,,0.00,294.0,WeatherDisplay:10.37,2013-07-21 20:17:00,
2013-07-21 16:22:00,83.1,71.4,29.94,ENE,69,4.0,4.0,68,0.00,BKN,,0.00,299.0,WeatherDisplay:10.37,2013-07-21 20:22:00,
2013-07-21 16:27:00,82.7,70.6,29.93,ENE,59,4.6,4.6,67,0.00,BKN,,0.00,301.0,WeatherDisplay:10.37,2013-07-21 20:27:00,
2013-07-21 16:32:00,82.6,72.2,29.93,NE,56,2.3,2.3,71,0.00,BKN,,0.00,323.0,WeatherDisplay:10.37,2013-07-21 20:32:00,
2013-07-21 16:37:00,82.8,71.6,29.93,ENE,68,3.5,3.5,69,0.00,BKN,,0.00,357.0,WeatherDisplay:10.37,2013-07-21 20:37:00,
2013-07-21 16:42:00,83.2,72.0,29.93,NE,51,3.5,3.5,69,0.00,BKN,,0.00,649.0,WeatherDisplay:10.37,2013-07-21 20:42:00,
2013-07-21 16:47:00,83.6,70.6,29.93,ENE,68,4.6,4.6,65,0.00,SCT,,0.00,506.0,WeatherDisplay:10.37,2013-07-21 20:47:00,
2013-07-21 16:52:00,84.1,72.4,29.93,East,93,3.5,3.5,68,0.00,SCT,,0.00,900.0,WeatherDisplay:10.37,2013-07-21 20:52:00,
2013-07-21 16:57:00,84.7,71.6,29.93,ENE,71,4.0,4.0,65,0.00,FEW,,0.00,519.0,WeatherDisplay:10.37,2013-07-21 20:57:00,
2013-07-21 17:02:00,84.2,70.7,29.93,NE,46,3.5,3.5,64,0.00,FEW,,0.00,311.0,WeatherDisplay:10.37,2013-07-21 21:02:00,
2013-07-21 17:07:00,84.0,71.9,29.92,East,86,3.5,3.5,67,0.00,BKN,,0.00,281.0,WeatherDisplay:10.37,2013-07-21 21:07:00,
2013-07-21 17:12:00,83.4,70.4,29.92,ENE,71,3.5,3.5,65,0.00,BKN,,0.00,230.0,WeatherDisplay:10.37,2013-07-21 21:12:00,
2013-07-21 17:17:00,83.0,70.0,29.92,East,84,2.3,2.3,65,0.00,BKN,,0.00,211.0,WeatherDisplay:10.37,2013-07-21 21:17:00,
2013-07-21 17:22:00,82.8,71.2,29.92,East,86,1.2,1.2,68,0.00,BKN,,0.00,193.0,WeatherDisplay:10.37,2013-07-21 21:22:00,
2013-07-21 17:27:00,82.7,71.5,29.92,East,86,1.0,0.0,69,0.00,BKN,,0.00,158.0,WeatherDisplay:10.37,2013-07-21 21:27:00,
2013-07-21 17:32:00,82.6,71.8,29.92,East,86,1.2,1.2,70,0.00,BKN,,0.00,137.0,WeatherDisplay:10.37,2013-07-21 21:32:00,
2013-07-21 17:37:00,82.4,72.5,29.92,SSE,161,3.5,3.5,72,0.00,BKN,,0.00,121.0,WeatherDisplay:10.37,2013-07-21 21:37:00,
2013-07-21 17:42:00,81.2,70.9,29.92,East,96,7.0,7.0,71,0.00,BKN,,0.00,104.0,WeatherDisplay:10.37,2013-07-21 21:42:00,
2013-07-21 17:47:00,80.1,69.0,29.92,ESE,109,4.0,4.0,69,0.00,BKN,,0.00,121.0,WeatherDisplay:10.37,2013-07-21 21:47:00,
2013-07-21 17:52:00,79.1,67.6,29.92,SE,138,5.8,5.8,68,0.00,BKN,,0.00,130.0,WeatherDisplay:10.37,2013-07-21 21:52:00,
2013-07-21 17:57:00,78.5,67.9,29.92,SE,130,4.6,4.6,70,0.00,BKN,,0.00,148.0,WeatherDisplay:10.37,2013-07-21 21:57:00,
2013-07-21 18:02:00,78.1,67.1,29.92,ESE,115,5.8,5.8,69,0.00,BKN,,0.00,172.0,WeatherDisplay:10.37,2013-07-21 22:02:00,
2013-07-21 18:07:00,77.9,67.3,29.92,ESE,110,6.0,6.0,70,0.00,BKN,,0.00,162.0,WeatherDisplay:10.37,2013-07-21 22:07:00,
2013-07-21 18:12:00,77.8,68.4,29.92,SSE,166,3.5,3.5,73,0.00,BKN,,0.00,172.0,WeatherDisplay:10.37,2013-07-21 22:12:00,
2013-07-21 18:17:00,77.7,67.5,29.91,SSE,161,5.0,5.0,71,0.00,BKN,,0.00,197.0,WeatherDisplay:10.37,2013-07-21 22:17:00,
2013-07-21 18:22:00,77.6,68.3,29.91,SE,126,3.5,3.5,73,0.00,BKN,,0.00,209.0,WeatherDisplay:10.37,2013-07-21 22:22:00,
2013-07-21 18:27:00,77.6,68.7,29.91,ESE,119,3.5,3.5,74,0.00,BKN,,0.00,223.0,WeatherDisplay:10.37,2013-07-21 22:27:00,
2013-07-21 18:32:00,77.7,68.7,29.90,SE,146,3.5,3.5,74,0.00,BKN,,0.00,204.0,WeatherDisplay:10.37,2013-07-21 22:32:00,
2013-07-21 18:37:00,77.9,68.5,29.90,SE,142,4.0,4.0,73,0.00,BKN,,0.00,199.0,WeatherDisplay:10.37,2013-07-21 22:37:00,
2013-07-21 18:42:00,78.0,67.8,29.90,ESE,119,2.3,2.3,71,0.00,BKN,,0.00,190.0,WeatherDisplay:10.37,2013-07-21 22:42:00,
2013-07-21 18:47:00,78.2,68.0,29.90,East,98,3.5,3.5,71,0.00,BKN,,0.00,207.0,WeatherDisplay:10.37,2013-07-21 22:47:00,
2013-07-21 18:52:00,78.5,69.1,29.90,East,99,2.3,2.3,73,0.00,SCT,,0.00,258.0,WeatherDisplay:10.37,2013-07-21 22:52:00,
2013-07-21 18:57:00,79.0,69.2,29.90,SE,129,3.5,3.5,72,0.00,SCT,,0.00,306.0,WeatherDisplay:10.37,2013-07-21 22:57:00,
2013-07-21 19:02:00,79.5,68.9,29.89,SE,138,3.5,3.5,70,0.00,FEW,,0.00,295.0,WeatherDisplay:10.37,2013-07-21 23:02:00,
2013-07-21 19:07:00,79.8,70.0,29.89,SE,126,2.3,2.3,72,0.00,FEW,,0.00,162.0,WeatherDisplay:10.37,2013-07-21 23:07:00,
2013-07-21 19:12:00,79.9,69.7,29.89,SE,135,2.3,2.3,71,0.00,SCT,,0.00,146.0,WeatherDisplay:10.37,2013-07-21 23:12:00,
2013-07-21 19:17:00,79.9,70.9,29.90,SE,135,1.2,1.2,74,0.00,BKN,,0.00,134.0,WeatherDisplay:10.37,2013-07-21 23:17:00,
2013-07-21 19:22:00,79.9,70.5,29.90,SE,135,0.0,0.0,73,0.00,BKN,,0.00,134.0,WeatherDisplay:10.37,2013-07-21 23:22:00,
2013-07-21 19:27:00,80.0,71.8,29.90,SE,135,0.0,0.0,76,0.00,BKN,,0.00,97.0,WeatherDisplay:10.37,2013-07-21 23:27:00,
2013-07-21 19:32:00,80.1,72.2,29.90,SE,135,0.0,0.0,77,0.00,BKN,,0.00,91.0,WeatherDisplay:10.37,2013-07-21 23:32:00,
2013-07-21 19:37:00,80.0,71.4,29.90,SE,135,0.0,0.0,75,0.00,BKN,,0.00,127.0,WeatherDisplay:10.37,2013-07-21 23:37:00,
2013-07-21 19:42:00,79.9,71.7,29.90,SE,135,0.0,0.0,76,0.00,BKN,,0.00,116.0,WeatherDisplay:10.37,2013-07-21 23:42:00,
2013-07-21 19:47:00,79.9,73.2,29.90,SE,135,0.0,0.0,80,0.00,SCT,,0.00,95.0,WeatherDisplay:10.37,2013-07-21 23:47:00,
2013-07-21 19:52:00,79.8,72.3,29.90,ESE,119,2.3,2.3,78,0.00,BKN,,0.00,84.0,WeatherDisplay:10.37,2013-07-21 23:52:00,
2013-07-21 19:57:00,79.5,72.8,29.89,ENE,64,2.3,2.3,80,0.00,BKN,,0.00,104.0,WeatherDisplay:10.37,2013-07-21 23:57:00,
2013-07-21 20:02:00,79.4,72.7,29.90,ENE,66,0.0,0.0,80,0.00,BKN,,0.00,79.0,WeatherDisplay:10.37,2013-07-22 00:02:00,
2013-07-21 20:07:00,79.3,71.8,29.90,ENE,66,0.0,0.0,78,0.00,BKN,,0.00,54.0,WeatherDisplay:10.37,2013-07-22 00:07:00,
2013-07-21 20:12:00,79.1,72.8,29.90,ENE,66,0.0,0.0,81,0.00,BKN,,0.00,33.0,WeatherDisplay:10.37,2013-07-22 00:12:00,
2013-07-21 20:17:00,79.0,73.4,29.90,ENE,66,0.0,0.0,83,0.00,BKN,,0.00,32.0,WeatherDisplay:10.37,2013-07-22 00:17:00,
2013-07-21 20:22:00,78.9,73.7,29.90,ENE,66,0.0,0.0,84,0.00,BKN,,0.00,37.0,WeatherDisplay:10.37,2013-07-22 00:22:00,
2013-07-21 20:27:00,78.7,73.1,29.90,ENE,66,0.0,0.0,83,0.00,BKN,,0.00,30.0,WeatherDisplay:10.37,2013-07-22 00:27:00,
2013-07-21 20:32:00,78.5,72.5,29.90,ENE,60,1.2,0.0,82,0.00,BKN,,0.00,23.0,WeatherDisplay:10.37,2013-07-22 00:32:00,
2013-07-21 20:37:00,78.3,72.0,29.90,ENE,60,0.0,0.0,81,0.00,BKN,,0.00,19.0,WeatherDisplay:10.37,2013-07-22 00:37:00,
2013-07-21 20:42:00,78.2,72.6,29.90,ENE,60,0.0,0.0,83,0.00,BKN,,0.00,12.0,WeatherDisplay:10.37,2013-07-22 00:42:00,
2013-07-21 20:47:00,78.0,72.4,29.90,ENE,60,0.0,0.0,83,0.00,BKN,,0.00,11.0,WeatherDisplay:10.37,2013-07-22 00:47:00,
2013-07-21 20:52:00,77.7,72.8,29.90,ENE,60,0.0,0.0,85,0.00,BKN,,0.00,7.0,WeatherDisplay:10.37,2013-07-22 00:52:00,
2013-07-21 20:57:00,77.5,72.3,29.91,ENE,60,0.0,0.0,84,0.00,BKN,,0.00,5.0,WeatherDisplay:10.37,2013-07-22 00:57:00,
2013-07-21 21:02:00,77.3,72.1,29.91,ENE,60,0.0,0.0,84,0.00,BKN,,0.00,5.0,WeatherDisplay:10.37,2013-07-22 01:02:00,
2013-07-21 21:07:00,77.1,71.5,29.91,ENE,60,0.0,0.0,83,0.00,,,0.00,0.0,WeatherDisplay:10.37,2013-07-22 01:07:00,
2013-07-21 21:12:00,77.1,72.9,29.91,ENE,60,0.0,0.0,87,0.00,,,0.00,0.0,WeatherDisplay:10.37,2013-07-22 01:12:00,
2013-07-21 21:17:00,76.8,73.0,29.91,ENE,60,0.0,0.0,88,0.00,,,0.00,0.0,WeatherDisplay:10.37,2013-07-22 01:17:00,
2013-07-21 21:22:00,76.5,72.7,29.91,ENE,60,0.0,0.0,88,0.00,,,0.00,0.0,WeatherDisplay:10.37,2013-07-22 01:22:00,
2013-07-21 21:27:00,76.2,72.7,29.91,ENE,60,2.3,2.3,89,0.00,,,0.00,0.0,WeatherDisplay:10.37,2013-07-22 01:27:00,
2013-07-21 21:32:00,75.9,72.4,29.91,ENE,60,1.2,1.2,89,0.00,,,0.00,0.0,WeatherDisplay:10.37,2013-07-22 01:32:00,
2013-07-21 21:37:00,75.8,72.3,29.91,ENE,60,0.0,0.0,89,0.00,,,0.00,0.0,WeatherDisplay:10.37,2013-07-22 01:37:00,
2013-07-21 21:42:00,75.7,71.9,29.92,ENE,60,0.0,0.0,88,0.00,,,0.00,0.0,WeatherDisplay:10.37,2013-07-22 01:42:00,
2013-07-21 21:47:00,75.6,72.5,29.92,ENE,60,0.0,0.0,90,0.00,,,0.00,0.0,WeatherDisplay:10.37,2013-07-22 01:47:00,
2013-07-21 21:52:00,75.5,72.4,29.92,ENE,60,0.0,0.0,90,0.00,,,0.00,0.0,WeatherDisplay:10.37,2013-07-22 01:52:00,
2013-07-21 21:57:00,75.4,72.3,29.92,ENE,60,0.0,0.0,90,0.00,,,0.00,0.0,WeatherDisplay:10.37,2013-07-22 01:57:00,
2013-07-21 22:02:00,75.3,72.2,29.92,ENE,60,0.0,0.0,90,0.00,,,0.00,0.0,WeatherDisplay:10.37,2013-07-22 02:02:00,
2013-07-21 22:07:00,75.2,72.4,29.93,ENE,60,0.0,0.0,91,0.00,,,0.00,0.0,WeatherDisplay:10.37,2013-07-22 02:07:00,
2013-07-21 22:12:00,75.1,72.3,29.93,ENE,60,0.0,0.0,91,0.00,,,0.00,0.0,WeatherDisplay:10.37,2013-07-22 02:12:00,
2013-07-21 22:17:00,75.1,72.3,29.93,ENE,60,0.0,0.0,91,0.00,,,0.00,0.0,WeatherDisplay:10.37,2013-07-22 02:17:00,
2013-07-21 22:22:00,75.0,72.2,29.93,ENE,60,0.0,0.0,91,0.00,,,0.00,0.0,WeatherDisplay:10.37,2013-07-22 02:22:00,
2013-07-21 22:27:00,74.9,72.4,29.93,ENE,60,0.0,0.0,92,0.00,,,0.00,0.0,WeatherDisplay:10.37,2013-07-22 02:27:00,
2013-07-21 22:32:00,74.9,72.4,29.93,ENE,61,1.2,1.2,92,0.00,,,0.00,0.0,WeatherDisplay:10.37,2013-07-22 02:32:00,
2013-07-21 22:37:00,74.8,72.0,29.93,ENE,61,2.3,2.3,91,0.00,,,0.00,0.0,WeatherDisplay:10.37,2013-07-22 02:37:00,
2013-07-21 22:42:00,74.9,72.1,29.93,ENE,61,1.2,1.2,91,0.00,,,0.00,0.0,WeatherDisplay:10.37,2013-07-22 02:42:00,
2013-07-21 22:47:00,75.1,72.3,29.93,ENE,61,0.0,0.0,91,0.00,,,0.00,0.0,WeatherDisplay:10.37,2013-07-22 02:47:00,
2013-07-21 22:52:00,75.1,72.6,29.93,ENE,61,0.0,0.0,92,0.00,,,0.00,0.0,WeatherDisplay:10.37,2013-07-22 02:52:00,
2013-07-21 22:57:00,74.9,72.4,29.93,ENE,61,0.0,0.0,92,0.00,,,0.00,0.0,WeatherDisplay:10.37,2013-07-22 02:57:00,
2013-07-21 23:02:00,74.8,72.3,29.93,East,100,2.3,2.3,92,0.00,,,0.00,0.0,WeatherDisplay:10.37,2013-07-22 03:02:00,
2013-07-21 23:07:00,74.8,72.3,29.93,East,100,1.2,1.2,92,0.00,,,0.00,0.0,WeatherDisplay:10.37,2013-07-22 03:07:00,
2013-07-21 23:12:00,74.9,72.4,29.92,East,100,0.0,0.0,92,0.00,,,0.00,0.0,WeatherDisplay:10.37,2013-07-22 03:12:00,
2013-07-21 23:17:00,74.9,72.4,29.92,East,100,0.0,0.0,92,0.00,,,0.00,0.0,WeatherDisplay:10.37,2013-07-22 03:17:00,
2013-07-21 23:22:00,74.8,72.3,29.92,East,100,0.0,0.0,92,0.00,,,0.00,0.0,WeatherDisplay:10.37,2013-07-22 03:22:00,
2013-07-21 23:27:00,74.7,72.5,29.92,East,100,1.2,1.2,93,0.00,,,0.00,0.0,WeatherDisplay:10.37,2013-07-22 03:27:00,
2013-07-21 23:32:00,74.6,72.4,29.92,East,100,0.0,0.0,93,0.00,,,0.00,0.0,WeatherDisplay:10.37,2013-07-22 03:32:00,
2013-07-21 23:37:00,74.4,72.2,29.92,East,100,0.0,0.0,93,0.00,,,0.00,0.0,WeatherDisplay:10.37,2013-07-22 03:37:00,
2013-07-21 23:42:00,74.2,72.4,29.92,East,100,0.0,0.0,94,0.00,,,0.00,0.0,WeatherDisplay:10.37,2013-07-22 03:42:00,
2013-07-21 23:47:00,74.1,72.3,29.92,East,100,0.0,0.0,94,0.00,,,0.00,0.0,WeatherDisplay:10.37,2013-07-22 03:47:00,
2013-07-21 23:52:00,74.0,72.2,29.92,East,100,0.0,0.0,94,0.00,,,0.00,0.0,WeatherDisplay:10.37,2013-07-22 03:52:00,
2013-07-21 23:57:00,74.0,72.2,29.92,East,100,0.0,0.0,94,0.00,,,0.00,0.0,WeatherDisplay:10.37,2013-07-22 03:57:00,